Regional Weather Roundup
Issued by NWS

Home | Current Version | Previous Version | Text Only | Print | Product List | Glossary Off
Versions: 1 2 3 4 5 6 7 8 9 10 11 12 13 14 15 16 17 18 19 20 21 22 23 24 25 26 27 28 29 30 31 32 33 34 35 36 37 38 39 40 41 42 43 44 45 46 47 48 49 50

091
ASUS43 KLOT 220408
RWRIL

ILLINOIS REGIONAL WEATHER ROUNDUP
NATIONAL WEATHER SERVICE CHICAGO/ROMEOVILLE IL
1000 PM CST SAT JAN 21 2017

NOTE: "FAIR" INDICATES FEW OR NO CLOUDS BELOW 12,000 FEET WITH NO
SIGNIFICANT WEATHER AND/OR OBSTRUCTIONS TO VISIBILITY.

* THESE STATIONS ARE NOT UNDER NWS QUALITY CONTROL. THEY ALSO MAY NOT
  REPORT WEATHER SUCH AS PRECIPITATION OR FOG.

ILZ001-002-007-009-015-016-024-220500-
NORTHWEST ILLINOIS

CITY           SKY/WX    TMP DP  RH WIND       PRES   REMARKS
MOLINE         CLOUDY    44  38  79 W5        29.59R
STERLING*      CLOUDY    41  40  96 S3        29.60R FOG
SAVANNA*       FOG       39  38  99 CALM      29.59R VSB 1/2
$$

ILZ003-004-008-010-011-017-018-220500-
NORTH CENTRAL ILLINOIS

CITY           SKY/WX    TMP DP  RH WIND       PRES   REMARKS
ROCKFORD       DRIZZLE   43  40  89 CALM      29.60S FOG
FREEPORT*      CLOUDY    39  39 100 SW3       29.60S FOG
ROCHELLE*      FOG       40  40 100 CALM      29.61R VSB 1/4
DE KALB*       FOG       41  41  99 NW5       29.60R VSB 1/2
$$

ILZ005-006-012>014-019>023-220500-
NORTHEAST ILLINOIS

CITY           SKY/WX    TMP DP  RH WIND       PRES   REMARKS
CHICAGO-OHARE  CLOUDY    41  40  96 NW3       29.58R FOG
CHICAGO-MIDWAY MOCLDY    46  40  79 W3        29.59R
AURORA         FOG       41  41 100 CALM      29.60R VSB 1/4
LANSING*       FOG       38  38 100 CALM      29.60R VSB 1/4
JOLIET*        FOG       37  37 100 CALM      29.60R VSB 3/4
WAUKEGAN       CLOUDY    42  41  96 W6        29.58R FOG
DUPAGE AIRPORT FOG       42  40  92 NW6       29.59R VSB 1/4
KANKAKEE*      CLOUDY    41  39  95 CALM      29.60R
WHEELING       CLOUDY    42  41  96 NW5       29.60R FOG
MORRIS*        FOG       37  36  96 CALM      29.60R VSB 1/4
ROMEOVILLE*    PTCLDY    43  43 100 CALM      29.59S FOG
NORTHERLY ISL    N/A     48  41  76 W2          N/A
$$

LMZ740>746-220500-
SOUTHERN LAKE MICHIGAN

STATION/POSITION SKY/WX   TEMP    WIND        PRES    VSBY  WAVE
                          AIR SEA DIR/SP/G                  HT/PER
                          (F)     (DEG/KT/KT) (MB)    (MI)  (FT/S)
HARRISON CRIB              52     280/  7/  8   N/A
BURNHAM HARBOR             48     270/  5/  6   N/A
CALUMET HARBOR             45     180/  3/  4 1001.8R
BURNS HARBOR               45     220/  3/  3 1003.0R
MICHIGAN CITY              52     220/  4/  4   N/A
$$

ILZ025>027-034>036-040-047-049-050-058-095>099-220500-
WEST-CENTRAL ILLINOIS

CITY           SKY/WX    TMP DP  RH WIND       PRES   REMARKS
QUINCY         CLOUDY    44  42  93 NE8       29.57S
GALESBURG*     CLOUDY    36  36 100 NW3       29.59S FOG
MACOMB*          N/A     38  38  99 CALM      29.61R FOG
JACKSONVILLE*  CLOUDY    45  42  88 CALM      29.58R
PITTSFIELD*    CLOUDY    50  44  80 NE8       29.58S
$$

ILZ028>032-037-038-041>044-048-051>054-059>061-220500-
CENTRAL ILLINOIS

CITY           SKY/WX    TMP DP  RH WIND       PRES   REMARKS
PONTIAC        MOCLDY    40  40 100 CALM      29.60S
DECATUR        MOCLDY    48  48 100 CALM      29.59R
PEORIA         PTCLDY    41  41 100 CALM      29.60R FOG
LACON*         FOG       40  40 100 CALM      29.59S VSB 1/4
LINCOLN*       CLOUDY    45  44  95 N5        29.58F
SPRINGFIELD    CLOUDY    51  43  74 N5        29.58S
TAYLORVILLE    MOCLDY    51  46  85 E5        29.58R
$$

ILZ033-039-045-046-055>057-062-063-220500-
EAST-CENTRAL ILLINOIS

CITY           SKY/WX    TMP DP  RH WIND       PRES   REMARKS
CHAMPAIGN      CLOUDY    50  45  83 N3        29.59R
RANTOUL*       CLOUDY    51  48  90 CALM      29.59S
MATTOON        MOCLDY    57  50  77 S8        29.57S
PARIS*         PTCLDY    50  49  99 SE3       29.60R
$$

ILZ079-100>102-220500-
SOUTHWEST ILLINOIS

CITY           SKY/WX    TMP DP  RH WIND       PRES   REMARKS
ALTON          CLOUDY    52  43  71 CALM      29.57R
BELLEVILLE     PTCLDY    55  55  99 CALM      29.55R
CAHOKIA*       CLOUDY    53  47  79 CALM      29.56R
SPARTA*        MOCLDY    57  53  87 CALM      29.57S
$$

ILZ064>066-069>071-074>076-080>082-084>086-088>090-092>094-220500-
SOUTH-CENTRAL ILLINOIS

CITY           SKY/WX    TMP DP  RH WIND       PRES   REMARKS
CARBONDALE     MOCLDY    52  51  97 SE5       29.56F
CAIRO*         CLOUDY    54  52  92 CALM      29.56S
EFFINGHAM*     CLEAR     53  51  92 CALM      29.59S
MARION         CLOUDY    54  50  87 CALM      29.57F
MT. VERNON     CLOUDY    52  50  93 CALM      29.57F
CENTRALIA*     PTCLDY    58  54  85 S7        29.56S
SALEM*         CLOUDY    60  52  74 S3        29.57S
METROPOLIS*    CLOUDY    56  51  82 CALM      29.58S
$$

ILZ067-068-072-073-078-083-087-091-220500-
SOUTHEAST ILLINOIS

CITY           SKY/WX    TMP DP  RH WIND       PRES   REMARKS
LAWRENCEVILLE  PTCLDY    51  48  89 S5        29.60R
FLORA*         CLOUDY    55  52  89 SE3       29.59R
FAIRFIELD*     CLOUDY    56  50  80 CALM      29.57S
HARRISBURG*    CLOUDY    54  50  87 E3        29.58S
ROBINSON*      MOCLDY    52  49  90 S3        29.60S
CARMI*         PTCLDY    51  49  92 SE6       29.58S
$$

ABBREVIATIONS USED IN REMARKS
   TC - TEMPERATURE IN CELSIUS
  WCI - WIND CHILL INDEX
   HX - HEAT INDEX
  VSB - VISIBILITY
$$





USA.gov is the U.S. government's official web portal to all federal, state and local government web resources and services.